Hourly Data Report for June 05, 2020

FISHER BRANCH (AUT)
MANITOBA
Current Station Operator: ECCC - MSC

51°05'00.100" N
97°33'16.200" W
253.00 m
50309J6
71442
WSZ

Download Data

Hourly Data (June 2020)
Hourly Data Report for June 5, 2020
TIME
LST
Temp Definition
°C
Dew Point Definition
°C
Rel Hum Definition
%
Precip. Amount Definition
mm

Wind Dir Definition
10's deg

Wind Spd Definition
km/h
Visibility Definition
km
Stn Press Definition
kPa
Hmdx Definition


Wind Chill Definition


Weather Definition


00:00 11.0 8.8 87 0.0 29 12   97.79     LegendNANA
01:00 10.4 8.3 87 0.0 25 11   97.82     LegendNANA
02:00 10.8 8.5 86 0.0 27 12   97.84     LegendNANA
03:00 10.8 8.5 86 0.0 28 16   97.86     LegendNANA
04:00 10.4 7.9 85 0.0 29 18   97.90     LegendNANA
05:00 9.9 8.0 88 0.0 29 18   97.98     LegendNANA
06:00 10.2 8.4 88 0.0 30 18   98.07     LegendNANA
07:00 10.7 8.1 84 0.0 31 18   98.15     LegendNANA
08:00 10.1 7.9 86 0.0 33 19   98.23     LegendNANA
09:00 12.4 7.3 71 0.0 32 19   98.30     LegendNANA
10:00 11.3 6.5 73 0.0 32 23   98.39     LegendNANA
11:00 11.2 6.9 75 0.0 33 22   98.48     LegendNANA
12:00 10.7 6.9 77 0.0 32 19   98.59     LegendNANA
13:00 10.9 7.0 77 0.0 33 20   98.66     LegendNANA
14:00 11.4 6.9 74 0.0 34 19   98.73     LegendNANA
15:00 12.4 6.3 66 0.0 36 16   98.77     LegendNANA
16:00 12.8 5.8 62 0.0 34 14   98.82     LegendNANA
17:00 14.4 5.1 53 0.0 35 15   98.81     LegendNANA
18:00 14.5 5.0 53 0.0 3 11   98.83     LegendNANA
19:00 14.1 4.3 52 0.0 4 11   98.84     LegendNANA
20:00 12.9 4.5 57 0.0 4 6   98.90     LegendNANA
21:00 9.9 2.6 60 0.0 35 9   98.97     LegendNANA
22:00 8.3 2.3 66 0.0 35 8   99.02     LegendNANA
23:00 4.4 1.5 82 0.0 4 2   99.09     LegendNANA

Notes on Data Quality.

Legend

  • E = Estimated
  • M = Missing
  • NA = Not Available*
  • [empty] = Indicates an unobserved value
Date modified: